Regional Weather Roundup
Issued by NWS

Home | Current Version | Previous Version | Graphics & Text | Print | Product List | Glossary On
Versions: 1 2 3 4 5 6 7 8 9 10 11 12 13 14 15 16 17 18 19 20 21 22 23 24 25 26 27 28 29 30 31 32 33 34 35 36 37 38 39 40 41 42 43 44 45 46 47 48 49 50
455
ASUS44 KLIX 191710
RWRLA
LOUISIANA WEATHER ROUNDUP
NATIONAL WEATHER SERVICE NEW ORLEANS LA
1100 AM CST FRI DEC 19 2014

NOTE: "FAIR" INDICATES FEW OR NO CLOUDS BELOW 12,000 FEET WITH NO
      SIGNIFICANT WEATHER AND/OR OBSTRUCTIONS TO VISIBILITY.
      SKY/WX - SKY CONDITION AND SIGNIFICANT WEATHER.
      TMP - AIR TEMPERATURE.    DP   - DEWPOINT TEMPERATURE.
      RH  - RELATIVE HUMIDITY.  PRES - PRESSURE.
      HX  - HEAT INDEX.         WCI  - WIND CHILL INDEX.

*  THESE STATIONS ARE NOT NWS OR FAA STATIONS AND ARE NOT UNDER
   NWS QUALITY CONTROL.

LAZ040-048-061>063-065-066-069-191800-
SOUTHEAST LOUISIANA

CITY           SKY/WX    TMP DP  RH WIND       PRES   REMARKS
N.O. AUDUBON     N/A     59  53  80 MISG        N/A
N.O. INTL ARPT CLOUDY    54  50  86 E13       30.11F
N.O. LAKEFRONT CLOUDY    55  51  86 E12       30.12F
N.O. DOWNTOWN* CLOUDY    55  48  76 NE6       30.12F
SLIDELL        CLOUDY    51  48  89 NE6       30.11F
BATON ROUGE    CLOUDY    55  53  93 E9        30.09F
BOOTHVILLE     LGT RAIN  57  56  96 NE10      30.11F FOG
BELLE CHASSE   CLOUDY    57  52  83 E16G24    30.11F
BOGALUSA*        N/A     50  45  84 E9        30.16F
GALLIANO*      CLOUDY    59  56  89 MISG      30.11F
NEW ROADS*     CLOUDY    54  53  97 NE7       30.11R
GONZALES*      RAIN      57  57 100 E3        30.10F
HAMMOND*       NOT AVBL
HOUMA*         LGT RAIN  55  54  94 NE12G20   30.11F FOG
PORT FOURCHON* PTSUNNY   61  57  88 E14G23    30.12F FOG

$$

LAZ041-044-053-054-191800-
SOUTHWEST LOUISIANA

CITY           SKY/WX    TMP DP  RH WIND       PRES   REMARKS
LAKE CHARLES   LGT RAIN  56  54  93 NE12      30.09F
LAFAYETTE      LGT RAIN  57  57 100 CALM      30.09R
PATTERSON      CLOUDY    55  54  94 E13       30.10F
SALT POINT       N/A     60  55  83 VRB5      30.07F
NEW IBERIA     RAIN      57  54  89 E12       30.08F FOG
CHENAULT AIRPK CLOUDY    55  54  94 N8        30.10F

$$

LAZ027-028-191800-
CENTRAL LOUISIANA

CITY           SKY/WX    TMP DP  RH WIND       PRES   REMARKS
FORT POLK      LGT RAIN  53  52  97 E8        30.12R FOG
ALEXANDRIA INT LGT RAIN  52  50  93 E10       30.12F FOG
ALEXANDRIA     RAIN      51  49  92 VRB3      30.15R

$$

LAZ001-002-191800-
NORTHWEST LOUISIANA

CITY           SKY/WX    TMP DP  RH WIND       PRES   REMARKS
SHREVEPORT     LGT RAIN  47  45  93 N13       30.22F FOG
BARKSDALE AFB  NOT AVBL
DTN SHREVEPORT LGT RAIN  46  43  89 N7        30.23F

$$

LAZ014-016-191800-
NORTHEAST LOUISIANA

CITY           SKY/WX    TMP DP  RH WIND       PRES   REMARKS
MONROE         RAIN      47  46  97 NE8       30.23R FOG
TALLULAH       LGT RAIN  48  44  86 NE9       30.20F FOG

$$




USA.gov is the U.S. government's official web portal to all federal, state and local government web resources and services.